Regional Weather Roundup
Issued by NWS

Home | Current Version | Previous Version | Graphics & Text | Print | Product List | Glossary On
Versions: 1 2 3 4 5 6 7 8 9 10 11 12 13 14 15 16 17 18 19 20 21 22 23 24 25 26 27 28 29 30 31 32 33 34 35 36 37 38 39 40 41 42 43 44 45 46 47 48 49 50
000
ASUS43 KLSX 230010
RWRMO

WEATHER SUMMARY FOR MISSOURI
NATIONAL WEATHER SERVICE SPRINGFIELD MO
700 PM CDT FRI JUL 22 2016

NOTE: "FAIR" INDICATES FEW OR NO CLOUDS BELOW 12,000 FEET WITH NO
       SIGNIFICANT WEATHER AND/OR OBSTRUCTIONS TO VISIBILITY.
       CURRENT SKY AND/OR WEATHER CONDITIONS ARE NOT AVAILABLE FOR
       CHILLICOTHE AND FARMINGTON.

MOZ001>031-035>038-043-044-053-054-230100-
...NORTHERN AND WESTERN MISSOURI...

CITY           SKY/WX    TMP DP  RH WIND       PRES   REMARKS
KANSAS CTY INT SUNNY     91  80  70 S8        29.95S HX 109
6HR MIN TEMP:  87; 6HR MAX TEMP:  93;

KANSAS C DTWN  SUNNY     94  76  55 S10G20    29.94R HX 106
6HR MIN TEMP:  88; 6HR MAX TEMP:  96;

LEE`S SUMMIT   SUNNY     93  76  57 S12       29.97S HX 105
6HR MIN TEMP:  86; 6HR MAX TEMP:  95;

ST JOSEPH      MOSUNNY   93  78  61 S9        29.92F HX 108
6HR MIN TEMP:  87; 6HR MAX TEMP:  94;

CHILLICOTHE      N/A     91  78  65 S5        29.97F HX 106
6HR MIN TEMP:  86; 6HR MAX TEMP:  92;

KIRKSVILLE     MOSUNNY   88  75  65 S5        30.00S HX  97
6HR MIN TEMP:  85; 6HR MAX TEMP:  90;


$$
MOZ066>068-077>081-088>096-101>105-230100-
...SOUTHWEST MISSOURI...

CITY           SKY/WX    TMP DP  RH WIND       PRES   REMARKS
SPRINGFIELD    SUNNY     94  68  42 SW6       30.01S HX  98
6HR MIN TEMP:  89; 6HR MAX TEMP:  96;

JOPLIN         SUNNY     93  71  48 S6        29.99S HX 100
6HR MIN TEMP:  93; 6HR MAX TEMP:  95;

BRANSON        PTSUNNY   91  75  59 CALM      30.04R HX 102

$$
MOZ032>034-039>042-045>050-055>058-069>072-230100-
...CENTRAL MISSOURI...

CITY           SKY/WX    TMP DP  RH WIND       PRES   REMARKS
COLUMBIA       MOSUNNY   87  78  74 SE8       30.00S HX 100
6HR MIN TEMP:  85; 6HR MAX TEMP:  90;

JEFFERSON CITY PTSUNNY   88  76  67 E8        29.98S HX  99
6HR MIN TEMP:  86; 6HR MAX TEMP:  90;

ROLLA          MOSUNNY   86  77  74 E5        30.01S HX  97
6HR MIN TEMP:  81; 6HR MAX TEMP:  89;

SEDALIA        SUNNY     92  75  57 SW6       30.00S HX 103
6HR MIN TEMP:  88; 6HR MAX TEMP:  93;

WHITEMAN AFB   MOSUNNY   91  77  65 SW9       29.97F HX 104
OSAGE BEACH    MOSUNNY   91  77  63 S3        30.00F HX 104

$$
MOZ051-052-059>065-230100-
...EAST CENTRAL MISSOURI...

CITY           SKY/WX    TMP DP  RH WIND       PRES   REMARKS
ST LOUIS INTL  PTSUNNY   85  70  60 SE5       30.01R
6HR MIN TEMP:  80; 6HR MAX TEMP:  86;

SPIRIT OF STL  CLOUDY    83  76  79 SW5       29.99S HX  91
6HR MIN TEMP:  79; 6HR MAX TEMP:  88;

ST CHARLES     MOSUNNY   83  76  79 SE5       29.99R HX  91
6HR MIN TEMP:  81; 6HR MAX TEMP:  85;


$$
MOZ072>076-082>087-097>100-106>115-230100-
...SOUTH CENTRAL AND SOUTHEAST MISSOURI...

CITY           SKY/WX    TMP DP  RH WIND       PRES   REMARKS
CAPE GIRARDEAU CLOUDY    86  74  67 NE6       29.97S HX  94
6HR MIN TEMP:  85; 6HR MAX TEMP:  91;

FARMINGTON     CLOUDY    82  74  76 N5        30.02F
6HR MIN TEMP:  82; 6HR MAX TEMP:  89;

POPLAR BLUFF   MOSUNNY   93  77  59 N8        29.96S HX 107
6HR MIN TEMP:  92; 6HR MAX TEMP:  96;

WEST PLAINS    CLOUDY    93  71  48 N3        30.03F HX 100
6HR MIN TEMP:  91; 6HR MAX TEMP:  96;


$$




USA.gov is the U.S. government's official web portal to all federal, state and local government web resources and services.